Regional Weather Roundup
Issued by NWS

Home | Current Version | Previous Version | Text Only | Print | Product List | Glossary Off
Versions: 1 2 3 4 5 6 7 8 9 10 11 12 13 14 15 16 17 18 19 20 21 22 23 24 25 26 27 28 29 30 31 32 33 34 35 36 37 38 39 40 41 42 43 44 45 46 47 48 49 50

000
ASUS43 KOAX 210802
RWRNE

WEATHER ROUNDUP FOR NEBRASKA
NATIONAL WEATHER SERVICE OMAHA NE
200 AM CST SUN DEC 21 2014

NOTES: SATELLITE DATA IS BEING USED TO AUGMENT CLOUD COVER ABOVE
       12000 FEET.
       "FAIR" INDICATES FEW OR NO CLOUDS BELOW 12,000 FEET WITH NO
       SIGNIFICANT WEATHER AND/OR OBSTRUCTIONS TO VISIBILITY.

  * THESE STATIONS DO NOT REPORT WEATHER SUCH AS RAIN...SNOW OR FOG.

NEZ001>004-019>022-054>056-210900-
NEBRASKA PANHANDLE

CITY           SKY/WX    TMP DP  RH WIND       PRES   REMARKS
SCOTTSBLUFF    PTCLDY    28  23  81 CALM      29.83F
ALLIANCE       PTCLDY    30  24  78 SW13      29.80F WCI  20
CHADRON        CLEAR     23  20  88 SW8       29.78F WCI  14
SIDNEY         CLOUDY    34  26  72 W12       29.87S WCI  25
$$

NEZ057>060-069>072-079>082-210900-
SOUTHWEST NEBRASKA

CITY           SKY/WX    TMP DP  RH WIND       PRES   REMARKS
NORTH PLATTE   PTCLDY    24  22  91 W5        29.88F WCI  18
IMPERIAL       CLOUDY    36  26  67 S6        29.87F WCI  31
MCCOOK         PTCLDY    28  24  85 W5        29.89F WCI  23
$$

NEZ005>010-023>029-035>040-094-210900-
NORTH CENTRAL NEBRASKA

CITY           SKY/WX    TMP DP  RH WIND       PRES   REMARKS
VALENTINE      CLOUDY    29  25  85 SW6       29.82F WCI  23
BROKEN BOW     CLEAR     29  24  82 CALM      29.86F
$$

NEZ041-046>049-061>064-073>077-083>087-210900-
SOUTH CENTRAL NEBRASKA

CITY           SKY/WX    TMP DP  RH WIND       PRES   REMARKS
GRAND ISLAND   FOG       27  26  96 S3        29.90F VSB 1/4
HASTINGS       CLEAR     32  30  92 S7        29.90F WCI  26
KEARNEY *      CLEAR     30  27  86 S7        29.89F WCI  23
$$

NEZ011>018-030>034-042>045-210900-
NORTHEAST NEBRASKA

CITY           SKY/WX    TMP DP  RH WIND       PRES   REMARKS
NORFOLK        FOG       33  33 100 S13       29.90F VSB 3/4 WCI  24
COLUMBUS *     CLOUDY    36  32  87 S7        29.93F VSB 1/4 WCI  30
TEKAMAH        FOG       34  33  96 SE10      29.96F VSB 1   WCI  26
$$

NEZ050>053-065>068-078-088>093-210900-
SOUTHEAST NEBRASKA

CITY           SKY/WX    TMP DP  RH WIND       PRES   REMARKS
LINCOLN        CLOUDY    34  33  96 S7        29.97F FOG     WCI  28
OMAHA EPPLEY   CLOUDY    37  35  92 S13       29.99F FOG     WCI  29
FALLS CITY     MOCLDY    34  32  92 S7        30.04S WCI  28
$$

NEZ044-045-051>053-067-210900-
OMAHA AREA

CITY           SKY/WX    TMP DP  RH WIND       PRES   REMARKS
OMAHA EPPLEY   CLOUDY    37  35  92 S13       29.99F FOG     WCI  29
OFFUTT AFB     CLOUDY    35  33  96 SE5       29.99F FOG     WCI  30
$$



USA.gov is the U.S. government's official web portal to all federal, state and local government web resources and services.